Temperature
19 18 18 19 20 19 19 19 18 20 20 19 18 18 19 19 19 18 18 17 15 14 13 13 13 14 14 14 14 13 13 13 12 12 11 11 10 10 10 10 9 9 9 9
18 17 19 20 20 19 18 18 18 19 19 19 18 18 19 18 18 19 18 16 15 14 13 13 13 13 13 13 13 13 13 12 12 12 11 11 10 10 10 9 9 9 9 9
18 19 19 19 19 18 18 17 18 18 19 18 17 17 18 18 18 18 18 17 15 14 13 12 12 12 13 13 13 13 13 12 12 12 12 11 10 10 9 9 9 9 9 8
19 20 19 18 18 18 17 19 19 18 17 17 17 16 17 16 16 16 17 16 15 14 13 12 12 12 13 13 13 12 12 12 12 12 11 11 10 9 9 9 8 8 8 8
18 18 17 17 18 18 18 18 18 18 17 16 17 16 17 16 15 15 16 16 15 14 13 12 12 12 12 12 12 12 12 12 12 11 11 10 10 9 9 8 8 8 7 7
18 19 18 18 18 18 18 17 17 16 15 15 17 17 17 16 16 15 15 16 15 14 13 12 12 12 12 12 12 12 11 11 11 11 10 10 9 9 8 8 7 7 7 7
17 18 18 18 16 16 16 16 15 15 14 15 19 18 18 18 17 16 16 16 15 14 13 12 11 11 11 11 11 11 11 11 10 10 9 9 8 8 8 7 7 7 7 6
16 17 17 17 16 16 15 16 16 16 17 17 16 17 18 17 18 18 17 16 15 14 13 12 11 11 11 11 11 10 10 10 10 9 9 8 8 7 7 7 6 6 6 6
17 17 17 17 17 17 16 16 17 16 17 17 17 18 15 17 16 17 17 16 15 14 13 12 11 11 11 10 10 10 10 9 9 9 8 8 7 7 7 6 6 6 6 5
18 17 16 15 16 16 16 17 16 15 15 15 18 18 16 14 15 15 15 16 15 14 13 12 11 11 10 10 10 10 9 9 9 8 8 7 7 6 6 6 6 5 5 5
17 17 15 14 14 15 15 16 16 16 17 16 16 17 17 16 15 14 15 16 15 14 13 12 11 10 10 10 9 9 9 8 8 7 7 7 6 6 6 5 5 5 4 4
17 17 16 15 16 16 16 16 16 15 16 16 15 16 17 16 16 16 16 16 15 14 13 12 11 10 9 9 9 8 8 8 7 7 7 6 6 6 5 5 4 4 4 4
16 16 15 15 14 14 15 16 17 16 16 15 15 16 15 16 16 17 16 15 14 14 12 11 10 10 9 9 8 8 8 7 7 6 6 6 5 5 5 4 4 4 3 3
17 16 16 16 16 15 15 15 16 15 14 15 15 17 15 15 15 15 15 15 14 13 12 11 10 9 9 8 8 7 7 7 6 6 6 5 5 4 4 4 3 3 3 2
15 15 16 17 17 17 17 16 15 15 15 15 16 16 17 16 15 15 15 14 13 12 11 10 9 9 8 7 7 7 6 6 6 5 5 5 4 4 3 3 3 2 2 2
14 15 16 16 16 16 15 15 15 15 15 15 15 15 16 16 16 15 14 13 12 11 10 9 9 8 7 7 6 6 6 5 5 5 4 4 3 3 3 2 2 2 1 1
13 14 15 14 15 14 13 14 15 15 15 15 14 15 15 14 14 14 13 13 12 11 10 9 8 7 7 6 6 6 5 5 5 4 4 3 3 2 2 2 1 1 0 -0
14 14 13 13 14 11 15 16 16 16 16 16 15 14 14 13 13 13 12 12 11 10 9 8 7 6 6 6 5 5 5 5 4 4 3 3 2 2 1 1 1 0 -0 -1
13 14 13 12 12 12 15 14 14 14 14 15 15 14 12 11 10 10 11 10 10 9 8 7 6 6 5 5 5 5 4 4 3 3 2 2 1 1 1 0 -0 -1 -1 -2
11 12 12 11 11 11 14 13 14 14 12 14 13 12 10 10 7 8 9 9 8 8 7 6 6 5 5 5 4 4 4 3 3 2 2 1 1 0 -0 -1 -1 -1 -2 -2
9 10 10 10 10 11 13 12 13 11 12 12 13 12 10 9 8 9 8 8 7 7 6 6 5 5 5 4 4 3 3 3 2 1 1 1 0 -0 -1 -1 -2 -2 -2 -3
10 10 10 10 10 10 10 11 11 11 11 12 12 11 10 9 8 8 7 6 6 6 5 5 5 4 4 4 3 3 2 2 1 1 1 0 -0 -1 -1 -2 -2 -2 -3 -3
12 12 12 12 11 12 12 12 12 12 11 11 11 10 9 8 7 7 6 5 5 5 5 4 4 4 4 3 2 2 2 1 1 0 -0 -0 -1 -1 -2 -2 -3 -3 -4 -4
12 12 12 12 12 11 12 11 11 11 10 10 10 9 9 8 7 6 5 5 5 4 4 4 4 3 3 2 2 1 1 0 -0 -1 -1 -1 -2 -2 -2 -3 -3 -4 -4 -5
12 10 10 11 11 11 11 11 10 10 9 9 9 8 8 7 6 5 5 4 4 4 4 3 3 3 2 2 1 1 0 -0 -1 -1 -1 -2 -2 -3 -3 -3 -4 -5 -5 -6
11 10 10 10 11 10 10 10 10 9 8 8 8 7 6 6 6 5 4 4 4 3 3 3 2 2 2 1 1 0 -0 -1 -2 -2 -2 -2 -3 -3 -4 -4 -4 -5 -6 -6
Wind_Speed
8 6 8 8 7 6 8 9 11 8 3 3 8 10 7 8 8 8 8 10 10 9 8 9 9 9 9 9 9 8 7 6 5 4 3 2 1 0 0 1 3 4 5 6
8 11 12 9 4 4 7 9 11 9 3 2 7 11 7 7 9 8 10 11 11 10 9 8 9 8 9 9 8 8 7 7 6 4 3 2 1 0 0 1 2 3 4 5
14 6 2 2 4 6 9 10 10 9 2 5 6 8 8 7 6 6 9 12 12 11 10 9 9 9 8 8 8 7 8 7 6 5 3 2 1 1 1 1 1 2 4 4
11 9 5 5 7 8 9 6 6 6 5 5 7 4 6 10 8 8 9 11 12 11 10 9 9 9 8 7 7 8 7 7 5 4 4 2 2 1 1 1 1 2 3 3
7 6 5 7 8 8 3 3 4 5 6 7 7 6 5 12 11 12 11 11 12 11 11 10 9 9 8 7 6 6 7 6 5 5 4 4 4 3 3 3 3 4 3 2
10 3 6 4 0 2 2 2 5 5 4 6 10 10 5 11 14 16 14 12 12 12 11 10 9 9 8 6 5 5 6 6 5 4 4 4 4 4 4 4 4 4 4 3
9 10 7 4 4 2 4 4 4 5 5 8 4 5 5 8 12 15 17 14 13 12 11 11 10 9 8 7 5 5 6 5 4 4 4 3 3 3 3 3 4 5 4 4
10 10 14 9 8 7 9 7 5 4 3 1 2 5 1 6 5 11 15 15 13 12 11 11 10 9 9 8 6 5 5 4 4 3 3 3 3 2 2 3 4 4 4 4
7 4 5 7 6 5 7 8 5 5 7 5 5 5 4 3 4 5 13 14 14 13 12 11 10 9 9 8 6 5 4 4 3 3 2 3 3 3 3 4 4 4 5 5
6 2 6 4 2 4 4 3 4 4 4 5 7 7 7 8 8 7 10 13 13 12 12 11 10 9 8 7 6 5 4 4 2 2 2 2 3 3 4 5 6 6 6 6
8 4 6 5 9 10 7 5 5 4 4 3 4 2 3 9 11 10 10 11 13 12 12 11 9 9 8 7 6 5 4 3 2 2 2 3 4 4 5 5 6 6 6 7
8 4 5 6 4 1 8 9 8 5 5 4 3 3 4 6 8 9 9 9 10 12 11 10 10 9 8 7 5 5 4 3 2 1 2 4 4 5 5 6 7 7 7 8
9 5 4 3 1 3 5 8 9 6 4 4 5 4 1 4 6 7 8 8 9 10 10 10 9 8 8 6 5 4 3 3 1 1 3 4 5 6 6 7 7 7 8 9
3 4 7 4 2 7 6 9 9 7 5 6 9 7 6 8 8 8 8 9 9 10 10 9 8 7 7 6 4 3 2 2 0 1 3 5 6 6 7 7 7 8 9 9
2 4 7 6 3 3 5 8 11 11 11 8 8 9 5 4 7 9 9 10 10 10 10 9 8 6 6 5 3 3 2 1 1 3 4 6 6 6 7 7 8 9 9 10
4 4 4 5 3 2 5 8 10 12 12 13 12 13 5 2 4 6 7 10 10 10 10 9 8 6 5 4 3 2 1 1 2 4 5 6 6 7 7 8 9 9 10 10
6 4 3 4 3 1 7 11 13 11 10 9 12 8 1 2 4 4 5 7 9 9 9 8 7 6 5 3 2 1 2 2 3 5 6 7 7 7 8 8 9 10 10 10
6 6 3 3 4 8 7 1 4 7 9 10 7 4 5 5 5 5 5 7 8 9 8 7 6 5 4 2 1 1 2 3 5 6 7 7 7 8 8 9 10 10 9 10
1 4 4 4 5 8 6 5 5 5 6 5 5 3 7 9 6 3 4 7 8 8 8 7 6 4 3 1 1 1 3 5 6 7 7 7 7 8 9 10 10 10 10 10
2 2 3 4 5 7 3 2 3 3 5 2 4 7 9 8 4 4 6 9 9 9 7 6 4 3 1 1 1 2 5 6 7 7 7 7 8 9 10 11 11 9 9 10
4 4 6 7 7 8 3 5 6 5 5 3 5 7 9 7 4 7 9 9 8 8 7 5 3 2 1 1 2 4 6 7 8 7 7 8 9 9 10 10 9 10 10 11
10 8 8 7 8 9 7 8 7 5 4 4 5 6 8 7 9 9 8 8 8 6 5 4 2 1 2 2 3 6 7 8 7 7 8 9 9 9 9 10 10 10 10 11
9 9 6 8 8 2 8 6 4 5 5 5 5 6 9 9 8 8 7 7 6 5 3 2 1 2 3 4 5 7 8 7 8 8 9 9 10 9 9 9 10 9 9 9
6 3 2 3 4 7 6 5 4 4 4 5 6 7 8 8 9 8 7 5 4 3 2 1 1 3 5 5 6 7 8 8 8 9 9 9 9 10 9 8 8 8 8 9
6 7 5 5 3 5 5 6 6 5 6 7 7 7 7 8 8 7 5 5 3 2 1 1 3 5 7 7 7 8 8 8 9 9 9 9 9 9 9 9 8 10 9 12
4 7 7 6 5 6 5 7 8 8 7 8 8 7 7 7 7 6 5 3 2 1 1 3 5 6 7 7 8 8 8 8 9 9 9 8 8 8 9 10 11 15 17 24
Wind_Direction
197 226 242 248 241 267 311 312 305 307 126 189 251 260 234 176 185 187 158 133 120 112 107 100 94 88 84 84 91 96 98 93 91 84 87 93 96 47 285 255 271 274 269 266
230 231 247 262 317 325 292 282 280 284 141 187 266 267 236 179 192 184 158 141 134 130 120 110 103 96 93 92 93 95 94 90 85 85 88 89 94 84 170 240 257 276 275 266
234 232 139 212 244 255 258 254 265 284 316 229 254 274 218 170 172 158 150 141 140 142 135 124 109 97 90 87 90 94 90 88 87 88 87 69 51 343 9 321 291 272 270 269
243 242 194 224 246 242 262 274 269 287 296 274 200 264 195 166 168 174 166 149 146 141 136 130 121 110 101 95 93 95 94 92 87 82 75 67 56 30 357 354 296 287 273 264
231 177 185 229 242 245 249 22 312 274 264 276 253 248 233 158 182 189 183 165 150 144 141 134 127 123 114 105 100 99 96 90 81 76 68 50 40 13 359 352 343 335 317 290
251 200 189 221 148 321 111 240 252 252 250 258 234 217 237 183 195 184 182 170 155 148 142 136 132 126 120 118 110 108 103 98 89 78 69 69 47 10 356 349 348 334 321 312
239 232 197 157 151 170 189 218 237 212 215 239 220 200 258 178 177 177 177 169 158 151 149 148 149 145 140 137 131 121 112 107 90 72 58 57 50 4 344 344 335 324 317 314
218 229 196 183 196 189 196 220 242 267 249 161 183 225 183 75 107 160 164 161 158 158 158 159 159 151 145 145 143 127 112 104 85 64 42 33 30 11 345 334 318 306 298 295
231 198 118 151 196 227 198 215 255 306 301 284 244 178 103 86 78 139 157 161 165 164 160 157 156 150 147 148 144 127 116 103 84 56 31 21 4 351 335 319 306 297 292 292
268 193 139 103 119 252 281 273 187 210 243 259 257 215 186 176 185 185 172 170 166 161 157 155 153 149 145 142 133 122 113 105 92 53 31 359 326 327 321 309 300 296 295 296
230 239 144 163 200 197 193 232 231 235 260 262 291 342 38 160 173 182 188 173 165 161 159 156 153 148 141 138 142 134 119 103 83 35 6 340 325 322 313 302 297 298 299 301
198 240 207 184 168 190 196 206 209 221 236 214 247 277 35 91 138 163 177 170 162 158 155 152 148 146 145 149 147 137 130 117 99 30 337 318 312 308 303 299 301 305 305 303
176 208 214 154 193 206 219 223 230 250 285 259 242 236 144 133 138 153 160 159 153 149 148 146 148 150 149 149 145 140 132 124 107 356 314 307 306 306 302 302 305 307 304 300
189 229 233 217 119 160 194 206 211 218 226 241 236 248 205 190 179 169 161 155 148 147 148 148 150 149 145 145 139 131 125 125 141 297 292 293 294 296 297 300 301 299 297 296
185 246 262 274 92 136 207 204 200 213 228 241 256 270 275 197 181 174 163 158 152 149 149 148 148 142 139 139 138 133 138 181 248 280 284 282 285 290 293 294 293 291 290 290
196 247 275 271 203 211 258 248 230 223 231 245 264 272 292 92 120 144 154 156 157 155 152 146 142 140 143 144 140 133 203 255 270 278 279 282 285 286 286 287 287 287 286 286
182 210 216 249 211 217 250 230 228 229 224 223 244 254 98 113 124 143 150 151 154 148 142 142 144 141 137 132 127 184 259 281 283 279 279 281 280 282 283 287 290 288 287 286
188 200 219 225 189 235 236 155 203 229 243 230 230 197 155 131 103 84 113 139 140 135 136 137 132 124 120 118 142 241 280 285 280 279 280 280 283 286 287 288 287 287 285 286
324 200 208 193 226 264 245 194 176 197 256 233 222 159 112 101 82 59 81 110 120 121 120 119 117 119 127 154 217 269 283 283 283 283 284 288 293 293 291 289 286 286 288 289
303 285 214 188 208 238 233 129 109 118 264 226 149 136 134 128 159 198 129 104 101 102 104 107 108 112 142 235 276 288 283 285 284 285 286 291 293 290 289 286 286 288 288 288
169 199 209 210 225 250 175 151 130 171 233 130 130 144 152 167 172 133 119 110 109 110 113 117 127 155 223 271 292 281 280 279 280 285 290 291 288 286 285 285 286 287 288 289
175 181 196 196 222 241 160 155 186 193 144 142 143 147 141 124 113 117 118 118 119 120 126 130 141 235 275 288 283 279 277 278 284 289 289 287 285 287 291 288 288 287 290 293
188 192 193 197 209 178 161 166 139 129 144 149 148 138 134 136 136 133 131 132 134 136 139 141 195 275 282 280 275 277 279 286 290 288 285 285 287 286 286 287 290 293 291 290
197 158 204 240 187 161 157 128 141 146 142 133 131 133 137 143 143 143 142 142 145 146 155 176 271 282 283 284 283 279 285 290 289 287 287 289 291 290 287 285 285 288 289 290
178 161 194 238 186 140 187 188 169 146 127 122 119 126 137 139 142 143 144 148 150 150 163 237 268 276 280 285 286 286 288 291 290 287 288 290 288 289 291 287 281 286 279 285
171 167 182 212 191 178 190 176 161 154 154 147 137 128 126 133 136 134 139 139 139 163 239 270 273 277 283 289 289 288 288 288 288 290 289 289 288 289 289 292 293 288 288 295
Height
1519 1523 1523 1518 1515 1516 1516 1518 1519 1512 1509 1511 1514 1512 1508 1508 1510 1513 1515 1518 1521 1523 1523 1523 1523 1523 1524 1525 1526 1527 1528 1530 1531 1532 1533 1534 1534 1535 1535 1534 1534 1534 1533 1533
1518 1520 1514 1512 1512 1514 1517 1521 1519 1512 1507 1510 1511 1509 1503 1504 1507 1509 1512 1516 1520 1523 1524 1524 1524 1524 1525 1526 1527 1528 1529 1530 1531 1532 1532 1533 1533 1533 1533 1533 1532 1531 1530 1529
1514 1511 1510 1511 1513 1517 1518 1520 1517 1514 1509 1508 1512 1511 1502 1502 1505 1508 1511 1514 1518 1521 1523 1524 1524 1525 1525 1526 1528 1529 1530 1530 1531 1532 1532 1532 1532 1532 1532 1531 1530 1529 1528 1527
1507 1505 1508 1511 1513 1514 1518 1510 1510 1512 1517 1516 1512 1520 1503 1502 1505 1507 1509 1512 1516 1520 1522 1523 1524 1525 1526 1527 1528 1529 1530 1531 1531 1531 1531 1531 1531 1531 1530 1529 1528 1527 1526 1525
1504 1504 1508 1511 1510 1510 1511 1511 1511 1512 1516 1519 1510 1515 1502 1500 1505 1506 1507 1510 1514 1518 1520 1522 1523 1524 1526 1527 1528 1529 1530 1530 1531 1531 1530 1530 1530 1529 1528 1527 1526 1525 1524 1522
1501 1500 1504 1505 1506 1508 1509 1512 1513 1514 1519 1525 1505 1509 1501 1497 1495 1499 1503 1507 1511 1515 1518 1521 1522 1524 1525 1527 1528 1529 1529 1530 1530 1530 1529 1528 1528 1527 1526 1524 1523 1522 1521 1519
1502 1500 1500 1503 1508 1510 1512 1518 1524 1527 1529 1519 1491 1496 1492 1481 1482 1489 1496 1503 1508 1512 1516 1518 1521 1522 1524 1525 1527 1528 1528 1528 1528 1528 1527 1526 1525 1524 1523 1522 1520 1518 1517 1515
1503 1501 1495 1498 1502 1507 1510 1512 1520 1521 1514 1502 1500 1498 1487 1480 1480 1485 1492 1499 1505 1510 1513 1516 1519 1521 1522 1524 1525 1526 1527 1527 1526 1526 1525 1524 1523 1522 1520 1519 1517 1515 1513 1511
1492 1494 1489 1492 1496 1500 1504 1508 1502 1509 1506 1506 1496 1486 1490 1483 1484 1486 1490 1496 1501 1506 1510 1514 1516 1518 1520 1521 1523 1524 1524 1524 1524 1523 1522 1521 1520 1519 1517 1515 1514 1512 1509 1507
1485 1491 1494 1496 1497 1499 1500 1498 1504 1511 1515 1514 1493 1485 1488 1489 1487 1487 1489 1493 1498 1503 1507 1511 1514 1516 1518 1519 1520 1521 1522 1522 1521 1520 1519 1518 1517 1515 1514 1512 1509 1507 1505 1502
1483 1490 1498 1499 1498 1498 1500 1500 1498 1500 1498 1508 1505 1492 1478 1480 1481 1484 1487 1490 1495 1499 1503 1507 1511 1514 1515 1517 1518 1518 1519 1518 1518 1517 1516 1515 1513 1512 1510 1508 1505 1503 1500 1497
1480 1486 1491 1491 1486 1486 1489 1492 1495 1503 1499 1496 1504 1498 1478 1477 1478 1481 1485 1489 1492 1496 1501 1504 1508 1511 1512 1514 1515 1515 1515 1515 1515 1514 1513 1511 1510 1508 1505 1503 1500 1498 1494 1491
1478 1484 1492 1495 1495 1491 1488 1486 1487 1489 1494 1497 1501 1493 1480 1478 1479 1480 1483 1487 1490 1494 1498 1502 1505 1507 1509 1511 1512 1512 1512 1512 1511 1510 1509 1507 1505 1503 1501 1498 1495 1492 1488 1484
1474 1478 1482 1485 1481 1483 1486 1484 1484 1489 1496 1495 1491 1483 1482 1479 1478 1479 1482 1485 1488 1492 1495 1499 1502 1505 1507 1508 1509 1509 1509 1509 1508 1506 1505 1503 1501 1498 1495 1492 1489 1485 1481 1477
1474 1478 1474 1471 1471 1473 1476 1478 1481 1486 1485 1488 1481 1478 1474 1474 1475 1476 1479 1482 1486 1490 1493 1496 1499 1502 1504 1505 1505 1505 1505 1505 1504 1502 1500 1498 1496 1493 1490 1486 1482 1478 1474 1470
1473 1476 1473 1474 1471 1474 1477 1476 1476 1478 1478 1478 1477 1475 1469 1470 1471 1474 1477 1480 1483 1487 1490 1494 1497 1499 1500 1501 1502 1502 1501 1501 1499 1498 1495 1493 1490 1487 1484 1480 1476 1471 1467 1463
1472 1475 1477 1480 1473 1476 1482 1472 1471 1471 1468 1470 1474 1471 1469 1470 1471 1473 1475 1478 1481 1484 1488 1491 1494 1496 1497 1498 1498 1498 1497 1496 1495 1493 1490 1488 1485 1481 1478 1473 1469 1465 1460 1455
1469 1472 1475 1478 1479 1490 1469 1459 1459 1461 1461 1461 1462 1464 1466 1469 1471 1473 1474 1476 1479 1483 1486 1489 1491 1493 1494 1495 1495 1494 1493 1492 1490 1488 1485 1482 1479 1475 1471 1467 1462 1458 1453 1448
1465 1469 1473 1481 1483 1475 1462 1458 1459 1461 1461 1457 1459 1462 1465 1468 1471 1474 1475 1476 1478 1481 1484 1486 1488 1490 1491 1491 1491 1490 1489 1487 1485 1483 1480 1477 1473 1469 1465 1460 1455 1451 1446 1441
1467 1467 1473 1478 1482 1480 1460 1457 1455 1459 1465 1456 1457 1460 1464 1468 1475 1474 1474 1475 1477 1479 1482 1484 1485 1487 1487 1488 1487 1486 1484 1482 1480 1477 1474 1471 1467 1463 1458 1453 1449 1444 1439 1433
1471 1471 1473 1476 1478 1467 1455 1456 1457 1469 1463 1457 1457 1459 1463 1466 1469 1470 1472 1474 1476 1478 1480 1482 1483 1484 1484 1484 1483 1481 1479 1477 1475 1472 1468 1465 1461 1457 1452 1447 1442 1437 1431 1426
1460 1466 1467 1469 1474 1467 1454 1455 1458 1456 1455 1456 1457 1459 1462 1464 1466 1468 1471 1473 1475 1476 1478 1479 1480 1480 1480 1480 1478 1476 1474 1472 1469 1465 1462 1458 1454 1450 1445 1440 1435 1430 1424 1418
1447 1449 1451 1452 1454 1447 1447 1449 1450 1451 1453 1454 1456 1458 1460 1463 1465 1467 1470 1471 1473 1475 1476 1477 1477 1477 1476 1475 1474 1471 1469 1466 1462 1459 1455 1451 1447 1442 1438 1433 1428 1422 1417 1411
1439 1440 1443 1444 1443 1444 1446 1447 1449 1450 1451 1453 1455 1457 1458 1461 1463 1466 1468 1470 1471 1472 1473 1474 1474 1473 1472 1471 1469 1466 1463 1460 1456 1452 1448 1444 1439 1434 1430 1426 1421 1416 1410 1404
1434 1439 1441 1442 1441 1443 1444 1445 1447 1448 1449 1451 1453 1455 1457 1459 1461 1464 1466 1467 1469 1470 1470 1470 1470 1469 1467 1465 1463 1460 1457 1454 1449 1445 1441 1436 1432 1427 1422 1417 1413 1408 1403 1399
1431 1435 1439 1439 1436 1439 1440 1441 1443 1445 1447 1449 1451 1453 1456 1458 1460 1462 1464 1465 1466 1467 1467 1467 1465 1464 1462 1460 1457 1454 1451 1447 1442 1438 1433 1429 1424 1419 1414 1408 1403 1398 1395 1390